Theta_e
294 294 294 295 294 294 294 294 295 295 296 296 295 295 297 299 292 291 297 300 298 300 303 306 308 310 311 312 315 316 318 316 319 319 321 321 319 323 329 330 330 329 329 330 331 332 331 331 331 331 331 332 332 333 333 333 333 332 332 332 330 329 328 328 327 327 326 324 324 323 321 320 319 318 319 319 319 318 317 317 316 314 315 314 313 312 312
293 294 294 295 294 294 295 295 295 296 296 296 297 297 297 297 297 299 300 300 300 302 304 307 309 311 313 313 314 316 316 320 319 317 318 319 319 323 328 330 330 330 330 332 332 331 330 330 330 330 329 330 331 332 332 331 331 332 332 330 329 328 327 327 326 324 324 323 321 321 320 318 318 318 318 319 318 317 316 315 314 314 314 314 313 312 312
292 295 296 296 295 294 294 295 296 296 296 296 296 297 298 299 298 299 299 300 299 304 307 311 313 314 313 315 312 314 315 318 319 318 318 316 321 325 328 329 330 330 330 331 332 331 330 330 330 330 330 330 331 331 332 331 331 332 331 330 329 327 327 327 326 323 321 320 320 319 318 317 318 319 319 318 317 316 315 314 313 314 313 312 312 313 312
290 294 295 296 296 296 294 294 296 296 296 295 296 294 299 297 296 298 298 297 298 304 308 311 311 312 311 311 313 315 315 318 321 320 319 317 320 326 328 329 330 329 329 331 331 331 331 331 330 330 329 330 331 330 331 330 330 331 330 330 329 327 328 327 325 321 319 319 319 318 317 317 318 319 318 317 316 315 314 314 313 314 313 313 312 313 313
288 296 296 296 295 294 290 290 295 297 298 298 299 298 299 300 301 296 292 296 302 305 307 307 308 309 313 312 313 317 317 318 320 322 322 323 324 326 328 328 328 328 328 330 332 331 332 331 331 331 331 330 331 332 331 330 330 329 330 329 329 328 328 327 325 322 321 319 318 317 317 317 318 317 316 315 314 313 313 314 313 313 312 313 312 313 312
287 294 297 297 291 283 285 298 301 300 297 297 296 296 298 301 301 299 302 302 305 306 306 305 305 307 313 315 315 316 316 319 321 322 324 325 326 327 329 330 329 329 330 332 331 332 331 331 331 332 331 331 331 332 331 330 329 328 329 329 327 326 327 325 323 322 321 320 319 318 317 317 318 316 315 315 314 313 313 313 313 313 312 312 312 312 312
289 293 294 288 282 285 300 302 302 302 301 300 298 300 300 300 301 301 301 302 303 305 305 305 306 310 314 317 315 314 317 320 322 324 325 326 327 328 329 329 329 330 331 330 331 332 331 331 332 331 330 331 331 331 330 329 329 328 327 328 326 325 324 324 323 322 318 316 316 315 315 316 316 315 315 314 313 312 313 313 312 312 311 311 311 311 311
294 290 288 281 284 298 302 302 303 304 302 301 300 298 300 301 301 301 300 301 303 305 305 306 307 311 315 315 314 318 319 320 324 325 327 328 329 328 329 329 329 330 331 332 331 331 332 332 331 331 330 331 329 329 329 327 327 327 327 326 324 324 321 321 321 320 317 314 313 314 315 314 314 314 314 313 313 313 313 312 312 312 311 311 311 311 311
287 288 288 287 295 295 297 298 300 300 298 299 297 290 296 303 303 302 301 302 303 305 305 306 307 313 315 311 309 318 322 323 326 328 329 329 328 329 330 330 331 334 333 332 332 332 332 332 331 331 332 331 329 328 327 327 327 327 327 325 323 322 322 322 321 318 316 315 314 314 314 313 312 314 314 313 313 313 312 311 310 309 309 309 311 311 310
293 289 287 286 286 284 291 302 305 306 309 308 304 299 295 303 304 305 303 302 304 305 305 306 308 314 309 304 305 316 324 326 327 330 331 331 330 331 331 331 330 331 334 333 333 332 331 331 331 330 329 328 328 326 326 326 325 326 326 325 325 324 324 321 319 317 316 316 314 313 312 311 312 314 315 314 312 311 310 308 309 309 310 311 310 310 309
291 289 286 285 284 288 300 303 306 307 309 308 306 298 292 302 304 304 304 303 304 305 305 306 309 308 303 302 309 324 326 327 329 329 330 330 331 331 331 330 329 329 331 331 330 330 331 330 330 329 328 328 326 326 325 325 325 324 324 324 324 322 318 318 318 318 317 316 314 312 312 312 313 313 313 313 312 311 311 311 309 309 309 307 310 309 309
291 290 287 285 289 290 300 307 309 308 309 309 302 288 288 303 305 305 304 303 304 306 307 308 308 307 299 303 319 328 328 328 330 330 329 329 330 330 330 331 331 330 331 330 329 329 328 329 330 329 328 327 326 326 324 325 325 324 325 324 324 322 321 320 320 318 318 316 314 313 312 310 311 310 309 308 307 308 308 308 307 306 306 304 305 306 308
290 288 289 290 292 299 305 306 309 310 309 305 290 286 294 312 312 305 305 305 306 308 308 308 305 310 313 324 324 329 329 328 328 329 330 331 331 330 329 329 321 330 330 329 328 328 329 329 329 329 328 327 325 325 325 325 326 328 328 327 326 323 322 320 319 319 317 316 314 313 311 310 309 309 308 307 308 308 307 307 305 304 303 301 301 303 306
290 291 288 288 293 303 308 310 308 308 304 290 290 306 315 316 315 318 313 307 308 309 309 310 309 315 325 324 323 327 328 328 328 327 329 329 329 330 328 326 327 329 328 329 328 329 329 330 329 329 328 326 325 325 325 325 325 325 323 320 319 318 317 316 316 315 314 313 312 310 309 308 307 307 307 308 307 307 305 304 303 301 300 300 301 302 304
294 291 288 288 285 298 310 310 305 307 296 299 309 314 316 315 317 317 317 317 317 315 313 313 317 323 325 325 323 325 327 327 327 328 327 328 327 328 329 329 328 328 328 328 328 328 328 330 329 328 327 325 325 326 327 328 329 327 325 323 321 320 318 316 315 313 312 310 309 310 309 308 306 305 305 305 305 305 304 303 302 301 300 301 302 302 304
289 288 286 288 298 305 312 309 297 306 309 313 314 316 312 315 317 317 317 318 319 318 316 318 322 324 324 325 324 327 328 328 329 329 329 329 329 329 329 329 328 329 328 328 328 329 328 328 328 327 326 324 324 324 326 329 329 328 326 323 321 319 317 315 314 313 312 310 310 309 308 307 307 306 305 305 304 304 304 304 302 301 300 301 301 301 303
293 291 296 302 307 309 312 312 312 316 316 317 321 319 316 315 316 320 318 320 321 322 321 323 323 322 325 325 326 326 327 327 328 328 329 329 329 328 328 328 329 328 328 327 327 327 328 328 328 327 327 326 325 324 326 325 323 323 321 320 318 316 315 315 314 313 312 310 308 307 307 307 306 305 304 305 304 304 304 304 303 302 301 301 300 302 301
303 305 305 308 307 311 312 314 316 316 317 319 318 317 316 318 319 321 321 323 324 324 323 321 322 322 325 325 326 326 326 326 327 329 329 329 330 329 329 329 328 328 328 328 327 327 327 328 327 327 328 327 324 326 325 322 321 319 319 317 316 315 315 315 314 311 309 308 307 306 306 306 306 306 305 304 305 305 304 303 303 301 299 299 299 298 298
298 292 306 305 305 307 311 312 315 316 316 314 316 317 317 318 320 321 323 324 325 325 325 323 321 324 326 326 325 325 326 326 327 327 328 328 328 327 327 328 328 328 328 327 326 326 326 327 327 327 327 326 326 327 325 323 321 320 319 318 315 316 315 314 312 310 308 307 306 306 307 307 307 307 307 306 306 304 303 302 301 300 300 300 299 298 299
297 298 304 306 308 309 313 313 312 312 313 316 317 317 318 318 320 322 323 324 323 324 322 323 321 324 326 326 326 325 325 326 326 326 326 328 328 328 329 329 327 328 327 326 325 325 324 325 326 326 327 327 327 327 325 323 322 320 317 316 315 314 314 312 310 309 308 298 303 306 306 306 306 306 306 306 304 303 302 302 300 299 300 299 298 298 301
305 303 307 308 310 309 310 311 312 313 314 314 315 316 317 318 316 317 320 324 324 324 323 324 324 324 324 325 326 326 326 325 326 326 327 328 328 328 328 328 327 327 326 326 326 326 325 326 327 326 327 326 326 322 323 322 320 317 315 312 314 314 313 311 309 309 309 307 308 306 305 306 306 306 304 305 305 305 306 305 303 301 300 301 300 302 302
294 295 301 307 298 299 308 309 313 313 314 314 314 314 314 316 315 317 316 318 321 323 324 323 323 322 324 326 326 325 326 326 326 326 327 327 328 328 329 328 328 327 327 327 326 325 325 326 326 326 327 326 325 323 322 320 318 315 312 312 312 311 310 309 308 308 308 307 308 308 307 306 307 307 297 299 303 306 305 299 296 296 297 302 303 303 302
294 302 305 307 308 307 308 310 312 313 315 315 312 312 312 314 316 315 315 316 317 319 321 323 322 320 321 324 326 326 327 327 328 328 327 327 327 328 328 327 326 327 328 326 326 325 326 326 326 325 325 325 324 324 321 319 318 315 314 312 311 310 308 308 305 308 309 307 306 308 309 307 306 305 304 303 290 288 293 298 295 293 294 294 294 295 299
307 309 306 308 306 305 309 312 312 313 315 315 313 313 314 313 314 316 316 315 316 317 319 321 322 323 324 326 327 326 326 327 327 327 328 327 327 327 327 327 325 326 326 326 325 324 325 325 325 325 324 324 324 322 321 320 319 317 315 314 312 310 309 309 305 306 307 307 307 307 306 306 305 304 303 302 301 293 290 293 292 291 291 291 292 292 294
306 310 312 310 309 309 312 314 315 314 314 314 315 315 314 313 313 314 314 315 317 318 318 319 321 323 324 325 327 326 326 326 326 324 322 321 323 326 326 325 325 326 326 326 326 325 325 325 325 324 324 323 323 320 320 320 319 317 316 315 313 311 311 309 306 305 305 306 306 307 306 305 304 304 303 302 301 300 296 291 290 290 291 291 291 292 292
313 312 313 313 312 312 313 313 312 314 315 315 315 316 315 314 315 315 313 314 316 319 319 319 320 322 323 324 325 326 325 324 319 320 325 323 323 323 323 324 326 327 326 326 325 325 325 324 325 324 323 322 321 320 320 320 320 318 317 316 315 313 312 310 308 307 307 308 307 307 306 305 305 304 304 304 304 301 297 296 295 291 291 290 291 291 291
314 313 311 311 309 310 311 309 308 313 314 315 315 314 314 315 314 314 316 316 314 316 318 319 320 321 324 325 322 324 323 322 323 323 324 323 322 323 324 326 326 326 324 325 325 321 320 323 322 323 322 323 321 320 320 320 319 318 318 318 317 304 296 302 310 308 307 307 307 307 306 305 304 303 304 304 304 300 298 296 296 295 295 296 292 291 296
311 314 314 309 307 309 312 313 314 314 314 314 315 314 314 314 315 314 315 315 316 316 317 320 320 320 320 322 322 321 322 323 320 322 322 322 324 325 325 326 325 324 324 324 323 322 322 321 321 321 321 322 322 322 321 320 320 319 319 319 317 313 311 308 310 309 308 307 306 306 306 305 306 304 302 302 300 299 298 298 298 298 298 298 297 292 291
311 312 315 315 313 315 316 315 314 313 313 313 314 314 314 313 312 314 315 314 315 315 316 318 318 320 320 320 321 321 320 320 319 320 321 323 323 324 325 325 325 324 323 322 321 321 321 320 319 319 320 321 322 322 321 320 320 320 319 318 317 313 312 311 311 309 309 308 307 306 300 303 304 305 302 302 301 302 300 300 299 300 301 301 299 297 292
312 312 313 314 314 313 312 312 312 313 313 312 312 312 312 312 312 312 313 314 314 316 317 318 318 319 320 320 321 321 319 320 320 320 321 321 323 323 323 323 323 322 322 320 319 320 320 319 319 320 319 320 320 321 320 321 321 322 320 319 318 314 313 313 313 311 309 308 306 296 301 302 303 303 302 302 301 301 301 302 300 300 301 301 296 297 294
310 312 313 313 312 312 311 311 312 312 312 312 312 312 311 312 312 312 312 313 314 315 316 318 318 318 319 320 321 322 322 322 321 321 321 322 323 323 322 322 320 317 319 319 319 319 319 319 320 319 319 320 320 320 320 321 321 321 320 319 316 301 296 298 302 311 310 307 305 304 304 303 304 302 299 300 300 301 302 302 302 300 299 301 300 300 299
310 310 310 311 311 311 312 312 311 311 311 311 310 309 309 310 311 311 312 312 314 315 316 317 317 317 318 320 320 320 321 321 322 321 321 321 321 322 323 323 322 315 322 322 321 319 320 319 317 321 321 320 321 322 322 321 321 319 318 310 314 310 302 296 305 306 307 307 305 305 303 305 304 303 300 299 300 300 301 301 300 300 300 301 301 301 301
306 305 305 308 308 309 309 310 310 309 310 310 310 311 312 313 312 311 312 313 313 313 314 315 316 318 319 319 319 319 319 320 321 321 321 320 320 321 322 323 322 322 323 323 323 322 321 320 320 322 322 322 322 322 322 322 320 318 318 316 316 310 300 301 304 308 306 306 305 306 306 304 305 304 303 300 301 299 301 301 300 301 301 301 302 302 301
309 308 308 308 309 309 309 309 310 309 310 310 311 311 311 311 311 311 311 310 311 312 312 313 314 315 317 318 318 318 318 318 316 317 319 320 320 321 321 320 323 323 323 323 323 323 323 322 322 321 320 320 320 320 321 320 319 317 317 317 314 308 307 307 305 308 307 304 305 303 306 307 306 306 303 301 302 301 299 300 300 300 301 302 302 302 297
312 312 312 311 311 311 311 311 309 310 309 309 309 310 310 311 312 311 309 310 310 310 311 311 311 312 313 314 315 316 316 315 317 318 319 318 319 320 320 320 320 320 320 321 322 323 323 323 322 321 320 320 320 320 320 320 319 318 318 317 315 310 310 309 308 308 307 307 307 306 306 304 304 299 303 303 302 301 300 298 299 300 300 300 302 301 299
311 311 311 310 310 311 311 310 310 310 311 310 311 310 310 310 310 310 309 309 310 311 311 311 311 311 310 310 311 312 313 313 312 312 316 317 320 320 319 318 318 318 318 319 322 323 322 321 298 303 320 320 320 320 320 320 319 319 317 316 311 310 309 306 308 308 307 308 307 305 306 302 302 303 301 303 302 303 302 302 300 300 300 301 301 300 300
312 311 311 312 310 310 309 310 310 309 310 311 310 310 310 311 311 310 310 310 310 310 310 310 310 309 309 310 311 312 311 312 312 312 312 307 317 319 318 317 317 317 316 315 317 321 320 318 300 297 312 318 319 320 320 302 319 318 315 315 313 310 309 307 308 308 307 307 306 306 302 302 304 304 302 303 302 302 301 302 298 299 300 299 300 300 298
314 313 311 310 310 310 311 310 310 311 311 311 311 310 311 310 310 310 309 310 309 310 310 310 309 309 309 310 310 310 309 310 310 312 313 315 318 318 318 318 316 314 314 314 318 319 317 308 297 309 320 319 319 320 312 297 299 316 316 315 314 311 308 308 306 306 306 308 306 307 305 305 305 305 303 303 303 302 300 301 300 300 300 299 299 299 299
310 310 310 310 309 309 311 311 312 313 312 311 311 311 310 309 309 310 309 308 309 308 309 309 309 309 309 309 309 310 311 312 312 315 316 316 317 317 313 312 312 315 316 318 318 314 310 309 315 317 318 318 319 319 306 295 295 315 315 315 315 312 310 311 308 306 306 309 306 307 308 306 305 305 305 305 304 301 298 300 301 300 300 301 300 300 300
309 309 310 309 308 309 311 311 311 312 312 312 311 309 309 308 309 309 308 308 308 307 309 309 308 307 307 307 308 309 309 311 313 313 314 315 315 314 314 315 314 315 313 303 316 313 305 298 309 316 317 317 318 315 310 305 302 312 314 313 313 311 311 310 310 308 308 308 306 300 306 305 305 305 304 304 303 302 302 301 301 301 301 301 300 300 299
309 308 308 309 309 308 310 311 310 311 310 310 309 309 310 309 309 308 308 307 308 309 308 308 307 306 306 307 307 308 309 309 311 312 313 314 313 312 311 310 314 314 312 310 312 310 305 306 314 317 318 316 317 306 311 301 308 312 314 314 312 312 312 311 309 308 308 307 304 305 306 306 304 304 304 305 303 303 303 303 301 300 300 299 300 301 302
308 309 309 309 307 310 310 311 310 309 309 310 308 309 310 309 309 308 307 308 308 308 307 306 299 307 308 307 307 307 308 309 310 311 313 312 310 311 309 310 312 310 294 301 302 305 312 313 312 306 314 315 310 297 299 306 311 313 313 313 313 310 311 309 309 309 308 307 308 307 305 306 305 304 303 303 302 301 302 302 301 301 300 300 300 301 301
308 308 307 307 310 310 310 309 308 309 308 309 309 309 309 309 308 307 307 307 306 306 307 306 304 302 306 308 307 307 307 308 309 309 310 312 313 313 312 311 311 308 289 303 310 315 314 316 313 309 297 304 305 291 294 310 312 313 313 312 310 311 310 311 309 309 308 308 307 307 307 306 305 304 302 302 302 302 302 301 301 301 300 302 302 302 301
307 307 308 309 309 309 309 308 308 307 306 307 308 309 308 307 307 306 305 306 305 306 306 307 307 307 306 307 307 306 306 307 307 308 307 308 310 312 311 311 310 303 293 304 311 312 310 307 306 297 287 289 289 290 306 313 313 312 312 311 310 310 309 309 308 308 308 307 306 306 306 303 304 303 303 302 302 303 302 302 303 303 302 302 302 302 301
307 308 308 309 308 308 307 306 306 305 306 306 307 306 306 306 307 307 306 305 305 306 305 306 306 307 307 307 307 307 308 308 309 308 307 305 305 307 309 302 309 307 301 291 309 310 307 304 294 286 289 288 290 288 308 312 312 310 311 309 310 309 309 308 307 308 306 307 305 305 304 306 305 304 304 302 299 302 302 302 302 303 302 302 301 301 301
308 308 308 300 306 306 305 306 306 306 306 305 304 304 305 306 306 306 306 306 305 306 307 308 308 308 308 308 308 309 309 309 310 311 310 308 306 307 307 299 304 298 292 289 310 309 303 285 285 286 286 286 289 301 310 310 312 310 310 309 309 309 309 308 308 308 307 306 305 306 306 306 305 305 305 305 304 304 302 299 300 303 303 303 303 302 302
308 307 306 306 306 306 306 306 306 305 304 304 303 303 304 306 305 305 305 306 306 307 308 308 308 309 309 309 309 307 306 306 308 309 309 309 306 302 298 295 294 292 298 306 306 305 302 300 292 285 288 288 285 305 311 311 311 311 310 310 308 309 308 309 308 307 307 306 304 303 300 303 305 305 304 302 304 303 303 302 303 303 304 301 302 301 300
307 306 306 305 305 305 305 304 304 303 303 303 304 304 305 306 306 306 306 306 307 307 307 307 307 308 308 308 308 309 308 306 303 305 309 309 310 309 309 309 304 294 294 292 292 289 284 285 284 287 287 284 298 308 311 310 309 310 309 309 308 308 308 308 307 307 306 305 304 305 304 305 305 305 304 304 304 303 303 303 302 302 304 302 302 302 302
308 307 306 305 304 304 304 304 303 302 303 304 303 304 305 305 305 305 305 305 305 305 305 305 304 305 306 303 305 306 305 305 306 304 307 309 309 308 306 298 288 288 297 308 308 305 289 286 288 286 285 287 306 309 309 308 309 307 307 308 307 308 307 307 307 306 306 305 305 304 305 304 305 305 304 303 303 303 301 302 303 303 303 302 301 300 301
307 306 304 304 304 304 303 303 302 303 303 304 304 304 306 305 303 303 304 306 305 302 304 304 304 304 305 305 304 304 305 305 305 306 306 307 308 309 307 307 305 299 297 307 307 304 290 286 287 288 294 307 308 308 309 308 308 306 308 306 306 308 304 304 300 300 304 303 305 304 305 304 305 302 303 303 303 302 302 302 303 297 291 297 300 301 301
305 304 305 303 305 305 306 305 304 304 305 304 305 304 305 304 304 302 305 304 305 304 303 303 304 304 305 304 304 305 305 304 304 302 304 305 306 302 302 304 305 303 306 306 307 307 306 307 307 302 303 305 307 307 307 307 307 307 304 306 306 307 304 304 304 305 306 304 305 305 305 304 304 305 303 303 302 302 302 300 303 301 299 299 299 301 301
308 308 307 307 307 306 306 306 305 305 305 304 305 304 304 304 303 303 304 297 304 304 304 303 302 304 305 305 304 305 306 306 304 304 302 303 305 306 302 299 305 304 306 307 307 309 308 306 301 299 297 305 307 307 299 298 305 305 306 303 303 307 304 305 303 304 305 306 306 305 303 304 304 303 303 303 302 301 301 302 302 302 301 302 302 299 302
Wind_Speed
4 8 4 13 18 15 14 15 16 18 19 18 18 17 15 10 8 8 13 10 9 10 11 11 8 7 8 8 6 4 3 11 14 12 13 13 15 17 19 20 20 21 21 20 21 19 16 18 19 16 15 15 14 14 15 14 15 16 14 15 16 16 15 15 15 15 14 13 12 12 12 12 11 11 11 10 10 10 10 10 9 10 10 10 10 10 10
3 6 7 7 13 16 17 18 17 19 19 18 17 15 15 13 12 8 7 12 9 8 13 12 10 5 6 7 6 6 7 8 12 12 13 15 17 19 20 20 21 20 21 22 22 21 21 21 20 18 16 16 17 15 14 13 15 14 16 15 16 16 17 17 15 14 15 13 12 12 12 12 12 11 11 10 10 10 10 10 10 10 10 10 10 10 11
5 7 8 8 11 12 14 18 17 17 17 17 17 15 14 14 12 12 13 11 14 11 6 11 4 3 4 4 5 5 5 8 13 16 17 17 18 19 19 19 20 20 20 22 23 22 22 22 22 19 17 16 15 15 13 13 14 16 15 16 15 17 17 16 16 14 13 12 12 13 12 11 10 10 9 9 10 10 11 11 11 10 10 11 11 10 11
5 8 7 7 6 9 12 13 17 18 18 17 16 15 15 14 15 14 15 14 11 7 5 10 4 2 4 5 5 4 4 7 11 15 18 20 18 18 18 18 19 19 21 22 24 23 22 21 21 19 17 16 15 17 15 14 13 15 15 15 16 16 16 15 16 14 13 13 13 13 12 12 10 8 10 10 12 11 11 12 11 10 11 11 11 10 10
1 4 6 7 10 8 11 13 15 17 17 15 15 16 17 17 15 14 10 11 8 5 6 5 5 4 2 3 3 3 3 3 9 12 14 16 17 17 17 18 19 19 20 22 23 21 19 19 19 20 19 19 18 16 15 16 15 15 13 15 16 15 15 15 16 13 13 13 13 13 12 12 10 9 11 11 11 11 11 10 10 10 10 10 10 9 9
4 4 2 3 8 9 9 10 14 15 15 16 17 15 16 16 15 11 10 14 11 7 5 5 5 1 3 2 3 3 3 3 7 10 12 14 14 15 16 18 18 19 18 18 19 20 19 18 19 18 17 16 15 14 15 16 15 15 12 12 13 14 14 15 15 15 14 14 14 11 11 13 13 13 13 11 11 9 9 9 9 10 10 10 10 9 9
4 4 4 3 5 7 3 3 10 16 15 15 15 13 15 16 16 15 15 19 17 11 10 8 5 1 1 4 5 5 3 4 5 8 11 12 15 15 16 18 18 19 18 18 18 18 18 17 16 16 16 14 13 14 13 14 15 15 15 14 14 14 15 15 16 16 16 12 10 12 14 14 14 13 12 10 11 10 9 10 9 10 10 10 9 9 9
4 4 3 5 3 5 3 2 3 10 15 14 13 14 15 16 17 17 18 19 16 12 11 10 9 2 3 5 7 5 5 6 5 8 10 12 13 15 14 15 16 16 18 18 19 17 15 16 17 15 15 15 16 15 13 14 15 15 16 15 16 15 15 15 16 15 16 15 13 13 15 14 14 14 13 13 12 11 10 9 8 7 8 8 9 9 9
5 3 2 5 5 1 3 4 6 7 11 14 13 9 12 14 14 16 17 17 15 14 11 11 8 1 5 9 8 8 7 6 6 7 9 12 13 14 14 15 17 17 16 16 16 13 13 16 15 15 14 13 15 15 15 15 16 16 17 17 15 16 15 16 16 15 16 18 17 15 15 14 13 13 13 13 11 10 10 8 8 7 7 7 7 8 8
7 4 4 3 6 3 5 4 3 2 5 5 11 10 9 12 15 16 17 16 15 13 12 11 6 0 7 8 8 8 8 6 7 7 9 11 13 13 15 14 14 15 16 17 16 14 13 13 14 13 14 14 14 15 15 15 15 16 17 17 17 17 16 15 15 15 16 17 17 16 14 14 13 12 12 11 11 10 11 11 8 6 4 4 4 6 7
6 4 4 4 1 2 3 4 2 3 3 3 4 8 11 10 15 16 16 16 14 13 11 11 4 3 6 7 2 7 6 8 8 9 11 12 12 13 14 15 16 16 14 17 18 18 18 15 14 14 16 16 15 15 14 16 17 16 15 16 17 17 14 14 14 14 15 15 15 14 14 12 12 13 12 10 6 7 8 9 11 8 7 6 3 2 4
6 5 4 4 2 0 3 5 4 4 4 4 6 8 7 9 14 14 16 15 14 12 11 8 3 4 6 4 5 6 8 9 10 10 12 13 14 14 15 15 15 15 16 17 17 17 18 17 16 18 18 16 16 15 15 16 17 16 16 16 16 16 15 15 14 13 13 14 13 13 12 11 10 10 9 9 10 9 9 9 9 9 7 5 7 3 1
6 7 5 3 2 1 4 8 5 0 3 7 8 7 1 10 8 14 13 12 12 11 10 5 5 8 5 3 4 3 8 11 12 11 12 12 13 14 15 15 15 15 14 15 16 17 15 17 17 17 16 16 15 15 16 16 15 14 14 14 14 13 12 13 13 14 13 14 14 12 10 10 10 10 9 10 10 10 9 7 9 8 7 7 8 8 7
5 2 5 2 3 5 7 8 3 4 7 6 7 3 8 7 8 8 1 7 10 9 7 6 9 1 6 6 6 8 10 11 12 12 12 14 13 13 14 16 15 14 14 14 15 15 15 16 17 16 16 15 15 15 15 16 15 14 14 14 13 12 12 12 12 11 10 9 9 9 9 10 10 9 9 10 9 10 8 9 10 8 7 7 8 9 8
5 5 5 5 2 1 8 11 2 1 4 3 7 7 4 3 5 3 2 0 3 5 6 8 5 4 3 5 8 10 11 12 13 14 14 14 14 15 15 17 15 15 15 15 15 15 15 16 16 16 16 16 15 14 15 16 15 15 15 14 14 13 12 12 11 11 10 11 10 7 8 10 11 10 10 10 10 10 10 10 10 10 10 9 9 9 8
4 3 4 2 3 5 7 7 2 5 5 5 6 6 5 6 2 0 3 3 3 5 4 6 4 3 5 5 8 10 11 11 12 13 13 13 13 15 15 15 15 16 15 15 16 17 14 14 14 14 15 15 13 13 14 12 12 14 14 13 13 12 11 11 11 11 12 11 8 8 10 10 10 11 10 10 10 9 10 10 10 10 9 9 9 9 9
3 4 3 1 1 2 3 6 5 6 3 2 6 7 4 5 4 4 1 4 4 4 6 6 4 4 5 7 9 10 12 12 11 13 14 14 14 15 16 17 17 15 15 16 16 15 14 15 14 13 12 13 14 15 13 12 12 13 13 12 11 11 10 10 10 11 11 10 9 9 9 10 11 11 12 11 10 10 11 10 10 10 9 9 9 8 8
6 9 8 1 1 2 4 3 3 5 5 6 7 6 4 5 5 5 5 5 5 5 7 4 3 5 6 9 10 10 10 11 11 12 13 13 14 15 15 16 15 14 15 14 14 14 14 14 13 12 12 13 15 14 13 13 13 12 12 12 11 11 10 10 11 12 12 11 10 9 10 9 10 10 10 10 10 10 10 9 9 9 9 9 9 10 9
5 2 2 5 4 3 2 4 3 5 9 6 5 7 6 6 7 7 7 5 6 5 5 7 6 5 7 9 10 10 10 10 11 11 12 13 13 14 15 15 14 13 14 15 15 15 14 14 13 13 13 12 12 12 13 13 13 13 12 11 11 10 11 10 11 12 13 10 9 9 10 9 9 9 10 11 10 10 9 9 9 8 8 9 9 10 10
5 1 5 4 1 1 4 5 4 7 6 7 7 7 8 8 8 9 9 7 6 4 4 4 9 7 7 9 10 11 11 10 10 11 11 12 12 12 12 14 13 12 13 14 15 14 13 12 12 12 12 12 12 12 13 13 13 13 12 11 11 11 11 10 10 11 10 12 12 10 10 9 9 9 9 9 10 10 10 10 10 9 9 10 10 10 9
7 5 4 1 6 3 2 3 7 6 6 6 6 8 9 11 12 12 12 10 9 8 8 7 8 8 8 7 7 8 11 13 9 8 10 11 12 11 12 13 12 10 11 13 16 15 13 13 12 12 12 11 13 14 12 12 13 13 11 11 10 11 10 9 9 10 9 11 10 10 9 9 8 8 10 10 9 9 9 10 9 11 12 10 10 9 9
1 4 4 3 1 1 2 1 2 5 7 7 7 8 10 11 10 11 12 11 11 10 10 10 9 8 6 6 6 8 7 10 14 11 9 9 11 11 10 10 10 9 10 12 14 13 12 12 12 12 12 11 12 13 12 12 13 12 12 11 10 10 9 9 9 10 9 9 9 10 10 10 11 9 9 9 8 8 10 10 10 9 7 8 9 9 9
2 7 4 5 3 5 3 5 7 8 6 5 8 9 9 8 8 10 8 10 10 11 11 9 9 8 6 5 6 8 8 8 7 9 10 11 10 10 10 11 10 10 10 11 12 12 12 11 11 11 11 11 12 12 13 12 13 13 13 11 9 9 8 8 9 9 9 9 9 11 10 11 10 9 9 6 9 10 7 9 8 10 6 5 9 7 8
1 7 8 6 4 4 1 3 7 6 10 6 6 9 9 8 8 8 8 7 7 8 8 9 9 8 8 9 8 10 9 8 8 7 7 8 9 9 9 10 10 10 12 12 13 13 10 10 11 11 11 11 13 12 12 12 12 12 13 11 10 9 9 9 9 8 9 10 11 10 10 10 10 9 9 10 5 9 8 9 12 10 11 11 11 9 5
4 6 6 7 5 7 4 4 6 5 6 7 5 8 8 7 7 5 6 6 6 6 7 7 8 8 8 8 8 8 9 8 8 8 7 6 7 9 8 9 10 11 11 11 11 11 10 11 10 11 11 11 11 11 11 11 12 12 11 10 10 10 10 10 10 10 9 9 9 9 9 10 9 9 9 9 10 8 5 8 6 9 10 10 11 10 9
5 3 1 8 7 6 3 4 3 2 4 3 3 6 7 6 5 5 6 5 4 4 5 5 6 7 7 6 7 8 9 9 8 7 6 6 6 7 7 9 10 9 9 11 11 11 11 11 11 11 12 12 11 11 11 11 11 11 11 11 11 10 10 11 11 10 9 10 10 10 9 8 8 9 9 8 9 9 9 7 4 4 5 1 6 10 9
5 4 4 6 8 5 4 4 3 0 1 2 4 5 3 4 3 4 4 6 6 3 3 5 6 6 7 7 8 8 8 8 6 5 6 6 6 6 7 7 8 8 8 9 10 9 7 8 10 11 11 11 10 10 10 11 10 10 10 10 9 9 12 11 10 10 10 9 10 10 8 8 8 8 7 7 7 9 9 9 9 9 8 6 5 9 8
6 4 3 2 4 4 8 7 4 4 3 2 2 3 4 2 2 3 5 1 4 3 4 2 4 6 6 7 7 8 7 6 6 7 6 6 5 5 7 7 7 6 7 7 8 7 7 8 10 11 10 10 11 11 11 11 11 11 10 10 9 9 9 9 8 8 8 9 9 9 9 9 8 8 7 6 6 7 8 8 8 9 9 9 10 9 12
5 3 2 3 7 2 2 4 6 5 4 2 1 2 3 4 4 1 5 2 4 3 4 4 5 5 5 5 4 5 5 5 6 8 7 6 6 7 7 8 7 7 7 8 7 7 8 7 7 7 7 7 7 8 9 9 9 9 9 9 8 8 9 9 8 8 8 8 8 8 7 6 6 7 7 7 7 7 7 9 9 10 9 9 9 8 6
1 4 5 5 3 4 5 5 5 5 4 2 1 2 3 2 4 5 2 3 2 3 3 4 5 6 5 6 5 5 4 5 7 6 6 5 6 7 6 7 7 6 7 8 8 8 9 7 5 4 5 6 6 3 6 8 7 10 10 9 9 9 9 9 9 9 9 9 8 7 6 5 6 7 8 8 8 9 8 9 10 7 8 8 8 9 10
5 5 5 5 5 4 5 5 2 3 3 2 1 2 3 1 2 4 4 4 3 4 4 5 5 6 6 6 6 5 5 4 5 6 6 6 7 8 8 8 7 8 8 8 9 9 9 7 7 7 8 8 9 10 10 9 8 8 7 7 5 8 11 11 8 8 8 9 10 10 10 10 10 9 7 7 7 8 7 6 5 6 7 7 8 9 9
2 4 7 7 6 5 4 3 3 3 2 1 1 2 1 2 4 5 5 5 6 6 6 6 7 7 6 5 5 4 5 5 5 5 5 6 5 6 7 7 7 8 8 9 10 10 10 10 10 10 11 11 11 10 10 9 9 8 8 8 7 7 8 11 7 7 7 8 9 9 9 10 10 10 8 7 7 8 8 8 8 8 9 9 9 9 9
7 7 8 8 6 5 4 3 3 3 3 3 3 3 4 5 5 5 5 5 6 6 7 7 7 6 6 5 5 4 3 4 5 5 5 5 5 5 5 3 4 4 6 7 9 9 10 10 10 9 9 10 10 10 10 8 8 8 8 8 8 9 10 9 7 8 6 7 8 8 9 9 9 9 9 9 8 8 8 8 8 8 9 9 9 7 8
9 9 7 7 4 5 5 4 3 3 3 2 4 4 4 5 5 5 5 6 7 7 7 7 7 6 6 6 4 3 1 2 4 4 5 6 5 5 5 4 3 4 6 6 7 7 6 7 8 9 9 9 9 8 8 8 7 7 8 8 8 10 9 8 8 7 7 7 7 7 7 8 9 9 8 8 9 8 8 8 7 8 9 9 8 8 10
6 6 1 5 3 3 4 4 3 4 4 5 5 4 5 5 6 7 7 6 6 6 5 5 6 6 6 6 6 6 6 7 5 3 4 4 4 4 3 5 5 5 5 6 6 6 5 8 8 8 9 10 9 8 8 8 7 7 7 7 9 9 8 9 8 8 7 8 7 8 8 8 8 7 8 8 8 7 7 7 7 7 7 7 7 8 6
7 6 5 6 2 2 6 2 5 6 4 5 5 6 6 6 6 6 6 5 4 5 5 5 5 6 6 6 6 6 6 5 4 4 3 2 5 5 4 4 5 5 6 6 5 5 7 5 9 5 8 8 8 8 8 7 7 6 7 5 7 6 7 8 7 7 6 7 7 8 7 8 8 8 8 8 8 8 8 8 8 7 7 6 5 6 5
8 7 7 9 8 9 5 6 10 7 5 5 6 6 7 7 6 6 5 5 5 5 5 5 5 5 5 5 4 5 4 4 3 2 2 1 1 4 6 6 6 6 6 5 4 4 4 7 7 7 4 8 8 8 7 5 6 6 6 6 6 6 7 7 7 7 7 7 7 7 8 8 7 7 8 7 7 7 7 7 7 7 7 6 5 4 5
8 6 5 4 6 5 8 10 7 5 6 7 6 6 6 6 5 5 5 5 5 5 4 4 4 3 2 2 2 4 4 3 2 3 3 3 3 4 5 6 7 6 5 5 6 5 5 6 4 3 5 6 6 7 8 7 5 4 7 6 6 6 6 6 7 7 7 7 7 7 7 7 7 7 7 6 6 6 7 7 7 8 7 7 6 8 7
8 7 6 1 3 2 6 6 6 6 7 8 8 7 6 6 6 4 5 5 5 3 2 2 2 1 1 0 1 3 3 3 0 2 4 4 3 3 6 8 8 6 5 5 6 7 6 5 5 5 4 5 6 7 8 6 3 5 6 6 5 5 5 6 6 7 7 7 7 7 7 7 7 7 7 7 7 7 7 7 7 7 7 7 7 6 6
10 9 8 4 3 6 6 6 5 7 7 8 7 8 6 5 4 4 4 3 4 2 2 2 1 1 1 2 2 3 3 2 2 2 4 2 4 5 5 6 7 6 7 10 2 7 7 3 4 3 4 4 4 7 6 5 5 3 3 4 4 5 5 6 6 6 7 6 7 7 6 6 6 7 7 7 7 8 8 8 7 7 7 6 6 7 9
9 8 2 5 8 10 10 8 7 8 7 7 7 6 5 4 5 3 3 2 3 2 3 3 2 1 1 1 1 1 1 0 0 0 1 4 5 5 3 3 5 5 5 6 4 5 4 4 3 4 4 4 3 8 6 7 5 4 4 4 5 5 5 6 6 6 5 6 6 6 7 7 6 6 7 7 7 7 8 8 8 6 5 6 7 8 9
7 8 4 5 3 8 8 8 8 7 7 7 7 6 5 2 0 1 1 1 1 2 3 4 7 7 3 2 1 2 3 2 2 2 1 4 7 5 4 7 4 4 6 3 3 4 5 4 1 5 5 4 7 9 9 7 6 4 3 4 4 4 4 5 5 6 6 6 6 6 6 7 6 5 7 7 7 7 7 7 7 7 6 6 7 8 8
10 8 7 3 11 8 8 7 7 8 7 6 5 5 6 5 3 2 1 1 2 1 3 4 4 4 3 3 3 3 3 2 3 2 3 4 8 8 5 7 5 5 6 5 5 6 5 3 5 6 9 8 7 9 8 6 6 5 4 4 4 4 5 4 5 6 5 6 6 6 6 7 7 6 6 7 7 7 7 7 7 7 6 7 7 8 8
10 7 8 10 8 8 8 7 7 6 5 5 4 3 2 1 0 1 1 2 1 1 1 3 3 3 3 3 3 3 4 5 4 4 3 3 4 5 9 7 6 5 6 6 5 1 7 9 6 6 7 8 7 5 5 5 5 4 4 4 3 4 5 5 4 5 6 5 4 5 5 5 4 5 6 7 7 7 8 7 7 7 6 7 7 8 8
9 10 9 9 9 8 7 6 6 4 5 3 1 1 1 3 3 3 3 3 3 2 2 2 3 4 3 2 3 3 4 5 6 4 1 3 6 6 5 4 6 4 4 8 5 6 8 6 5 5 4 3 2 4 5 5 5 5 4 4 5 5 5 4 4 4 4 4 5 6 7 7 7 7 7 7 7 7 7 7 7 7 7 7 7 7 8
8 9 9 8 7 6 5 6 7 5 4 4 5 4 3 4 4 3 4 4 4 3 3 3 3 3 4 4 3 1 2 2 3 4 6 7 8 6 6 9 7 6 6 9 3 7 6 6 5 4 4 3 3 5 5 5 4 4 4 3 4 4 5 4 4 5 5 5 5 5 5 6 6 7 7 7 7 7 7 6 6 7 7 7 8 8 8
8 8 7 6 6 6 5 5 5 5 5 5 4 5 4 4 4 4 4 5 5 5 5 5 4 4 4 5 3 3 3 3 3 2 4 6 8 7 7 7 6 5 4 3 7 6 4 3 2 2 3 3 5 5 5 4 3 4 3 3 3 3 4 4 3 4 4 4 5 5 5 5 6 6 6 5 6 6 6 7 7 7 7 7 7 8 8
8 8 8 8 6 5 4 3 5 6 5 4 4 5 5 4 5 6 6 5 6 6 6 6 6 5 3 2 4 6 6 1 3 3 2 3 3 4 4 4 4 4 4 9 8 6 6 5 3 4 3 3 4 5 3 2 3 3 3 3 3 4 4 4 4 4 4 5 5 5 5 6 6 6 6 6 6 7 7 7 7 7 7 7 7 7 8
8 7 6 8 7 6 6 6 6 4 5 6 4 4 5 5 5 5 4 4 5 5 6 6 6 6 6 7 6 5 6 8 7 5 3 2 2 4 5 5 3 3 4 1 6 5 5 3 3 4 4 5 4 3 1 1 2 2 2 3 3 3 4 4 4 5 5 5 5 5 6 6 6 6 6 6 6 5 6 6 7 7 7 6 7 6 6
7 8 7 6 7 6 5 5 5 6 6 5 4 3 3 4 5 4 3 3 3 3 4 5 5 5 5 6 7 7 6 6 6 6 5 5 4 4 5 5 3 2 5 2 7 5 5 0 4 4 3 4 4 1 1 0 1 3 3 3 3 4 2 1 2 1 4 5 5 6 6 5 5 5 5 5 5 5 6 6 7 5 9 1 4 5 5
6 6 6 5 4 5 4 4 6 5 7 6 6 5 4 3 3 3 3 2 3 3 4 5 4 4 6 5 6 5 6 7 5 4 5 5 5 6 6 5 4 1 1 1 4 3 4 4 4 4 5 3 2 2 2 2 3 3 2 3 3 4 4 2 4 5 5 4 5 5 4 5 5 5 5 5 5 6 6 6 7 5 4 3 3 4 4
3 5 7 6 5 5 5 5 6 5 4 4 4 4 4 3 3 4 3 4 3 2 3 4 5 3 3 3 4 5 5 3 4 6 4 4 4 5 4 1 3 3 4 5 2 3 3 5 5 3 6 4 2 4 4 2 2 3 3 3 3 4 2 3 5 5 5 4 5 5 5 5 5 5 5 5 5 5 5 5 5 5 6 4 4 4 6
Wind_Direction
274 353 351 187 185 190 194 202 199 206 209 213 211 210 216 207 215 201 198 160 132 151 141 145 135 126 129 115 103 112 153 173 175 176 171 178 183 194 179 168 169 169 170 172 170 167 162 168 171 165 169 174 177 180 176 172 169 167 166 172 168 169 166 178 171 170 157 165 163 153 151 151 153 159 161 160 162 166 170 168 175 173 172 172 172 176 168
217 207 202 234 214 191 196 201 199 203 199 207 223 212 209 204 212 231 192 203 192 178 151 159 139 116 102 105 103 144 167 185 166 179 185 196 198 193 179 171 171 171 171 170 167 163 169 172 173 171 172 175 181 181 177 171 166 163 172 175 169 164 174 176 169 159 158 161 152 150 150 153 157 159 157 159 162 165 171 170 174 175 174 175 177 177 172
224 213 231 214 208 218 208 197 197 201 207 205 209 221 220 223 230 236 263 217 207 208 168 102 99 118 121 149 170 160 176 172 178 184 181 194 200 190 178 171 169 169 170 169 165 164 172 174 173 174 173 174 176 179 176 172 165 169 170 179 168 173 172 171 167 157 153 149 149 148 151 150 155 153 149 157 163 169 173 173 176 175 179 176 181 180 173
215 209 216 229 240 230 223 216 205 199 200 205 205 213 207 216 217 230 234 238 210 185 116 112 138 237 226 187 171 169 185 181 179 187 181 190 194 188 176 170 168 169 171 171 172 170 172 174 173 173 173 172 174 178 174 169 164 168 177 177 169 170 169 160 161 154 149 150 151 151 151 151 134 145 155 165 175 175 175 176 177 176 181 178 180 180 175
299 187 175 224 222 217 223 220 215 208 199 205 203 207 210 213 223 224 225 231 234 176 145 156 165 212 135 221 160 141 170 221 186 191 191 186 188 184 174 170 170 171 173 177 175 173 169 170 173 174 173 176 176 175 172 173 170 175 177 174 171 172 169 165 163 154 152 153 154 155 153 137 143 156 151 163 173 175 176 174 176 176 181 178 181 178 180
237 257 281 214 215 211 226 202 208 215 213 203 206 202 205 205 211 227 224 245 240 225 207 199 252 41 34 41 346 312 307 215 207 195 194 191 187 181 174 171 170 171 173 173 177 177 172 170 175 173 175 178 179 178 177 168 160 172 174 164 162 170 165 162 160 158 150 160 163 145 131 143 157 161 163 170 171 168 168 171 176 176 178 180 179 179 184
275 256 268 245 227 220 64 103 190 200 214 208 213 209 204 207 209 222 231 248 250 255 261 267 285 31 288 257 300 297 253 248 216 197 186 188 183 177 176 172 171 174 172 179 177 172 172 168 169 170 175 170 167 172 169 162 161 167 173 169 168 161 167 166 164 158 147 138 133 135 149 156 160 161 163 161 166 170 170 173 179 179 177 177 181 181 185
299 295 237 239 234 98 137 159 220 196 204 211 209 221 212 209 211 211 225 237 252 254 256 263 270 329 299 281 266 240 249 232 214 189 181 185 180 177 178 174 166 170 174 170 178 177 171 169 170 169 168 160 167 171 166 161 169 173 173 168 170 164 165 167 168 156 143 135 142 152 158 163 167 170 170 169 171 169 169 169 176 175 176 178 178 184 183
304 309 294 261 357 217 157 186 201 198 202 197 208 213 214 216 212 216 223 232 238 245 254 256 256 289 283 278 268 201 219 213 196 179 174 178 179 172 173 177 170 165 161 164 165 161 166 170 167 171 160 159 162 162 166 170 174 173 171 168 168 169 168 170 165 155 151 151 155 162 164 164 170 171 168 168 169 164 163 163 163 172 174 177 176 185 184
311 318 306 273 232 239 131 75 37 6 349 284 204 213 232 213 221 218 227 228 225 234 243 249 244 289 280 266 252 166 182 172 176 162 163 170 171 170 165 170 170 167 158 155 152 156 154 160 163 150 149 153 159 166 168 168 175 174 173 172 176 176 178 167 163 159 159 160 161 165 165 168 171 171 169 166 162 160 160 158 149 142 148 136 187 182 194
290 289 280 267 303 92 351 9 313 287 328 295 214 222 231 208 217 222 224 223 226 229 225 229 218 266 257 251 139 120 155 159 161 162 157 169 167 162 160 164 170 169 159 150 156 161 165 168 155 153 154 161 170 172 173 174 174 172 181 177 178 175 171 169 166 164 164 164 163 165 166 165 166 165 163 151 128 140 140 139 141 148 148 161 167 183 189
259 283 287 276 104 133 338 312 343 320 199 205 204 213 233 200 205 220 217 220 221 220 220 234 210 239 248 271 71 116 145 155 153 163 160 159 166 163 162 160 163 165 162 154 159 161 170 167 159 167 163 171 175 174 175 179 178 175 175 172 175 175 176 171 171 167 166 165 164 165 159 150 151 144 136 137 147 155 152 158 155 139 121 134 139 131 316
284 279 267 241 119 93 314 305 294 136 186 196 200 206 53 349 288 202 208 213 214 217 219 205 226 215 264 95 127 126 144 149 159 155 145 158 159 159 157 154 151 161 166 166 162 162 162 164 165 170 172 172 174 178 181 183 185 178 174 171 168 164 160 158 161 164 163 165 160 156 147 144 143 140 146 148 153 159 156 145 131 127 124 131 142 169 184
266 291 278 251 54 27 317 305 290 159 166 177 191 54 307 311 354 19 25 209 204 210 210 180 233 162 99 124 147 158 155 163 152 148 154 155 157 154 152 137 152 156 163 162 164 164 166 167 171 172 173 177 182 177 179 182 174 164 159 160 160 159 158 154 150 146 135 125 127 122 128 134 138 141 145 148 153 153 146 140 140 143 144 154 169 176 187
247 249 247 244 210 54 344 330 247 162 267 45 349 322 333 334 340 25 30 310 164 208 204 203 192 136 114 133 160 159 159 164 155 153 159 156 161 150 137 148 156 156 161 164 162 166 169 172 171 175 178 178 181 181 187 184 179 173 171 163 164 163 162 158 153 145 134 132 131 128 133 141 140 140 145 152 157 158 156 157 159 161 169 172 172 176 174
304 334 302 346 11 307 328 4 336 58 23 327 316 325 326 347 318 192 142 183 213 204 192 150 130 107 102 105 143 153 151 159 149 152 154 157 153 143 147 156 157 161 162 166 166 169 167 173 172 174 178 177 171 178 181 170 172 169 162 157 154 151 150 152 148 144 140 135 124 120 133 135 135 140 153 159 162 166 169 170 172 176 178 175 177 177 174
301 327 6 68 168 295 354 14 330 353 43 351 314 322 3 344 359 302 116 125 166 162 139 139 144 103 97 123 141 141 155 152 158 153 157 158 155 148 154 158 156 165 163 164 163 166 167 167 169 177 178 175 170 179 170 152 142 147 148 144 143 145 149 149 146 140 137 135 137 136 140 149 152 158 160 165 169 176 177 181 180 176 173 174 179 177 180
243 286 341 234 183 37 16 78 317 8 26 32 5 10 2 28 5 20 97 120 114 132 127 144 110 106 135 138 134 137 149 154 157 163 158 159 152 152 152 155 160 164 156 159 164 164 166 170 174 171 179 177 171 176 158 150 147 145 144 142 144 148 151 152 147 143 139 138 141 147 152 159 162 163 160 168 179 177 179 180 175 173 176 183 186 190 191
281 232 210 345 15 25 320 58 14 38 57 51 19 24 13 29 23 43 54 87 97 104 133 155 140 142 129 131 132 140 149 150 160 163 163 162 160 154 161 154 160 163 159 157 165 164 168 172 177 177 178 172 173 165 158 157 153 153 154 150 151 155 153 147 144 147 146 148 147 153 163 170 168 170 174 176 176 173 175 172 176 180 179 187 195 195 195
276 40 89 123 114 117 338 10 36 46 34 50 27 22 12 34 41 35 36 51 70 80 84 84 121 112 115 124 133 141 143 148 160 162 164 162 160 154 151 144 167 163 163 163 163 168 169 172 180 176 182 176 174 166 160 158 152 147 145 147 150 154 152 147 149 153 156 149 156 162 169 172 173 172 168 178 175 177 178 178 175 177 192 203 198 197 179
98 20 11 277 86 349 50 46 49 24 20 36 45 29 24 23 29 35 45 36 40 43 58 62 80 95 93 100 125 137 137 137 147 157 164 168 156 153 154 149 172 165 164 161 157 164 169 170 174 174 177 173 156 146 161 153 145 142 142 145 148 148 147 147 150 156 155 161 167 162 169 180 184 179 172 182 180 181 184 186 186 188 195 197 190 184 179
41 25 329 340 188 172 116 69 6 16 2 31 43 44 40 36 25 17 27 39 35 39 43 57 62 62 66 85 110 115 121 130 137 151 164 161 151 154 152 142 176 170 161 157 148 157 169 174 177 173 171 165 148 155 158 149 147 139 138 141 144 144 147 149 153 161 158 161 181 179 180 187 195 185 174 190 194 193 192 199 196 185 176 184 179 179 184
12 240 290 322 334 302 324 324 331 346 341 4 47 41 46 53 41 40 13 19 32 38 40 50 73 88 90 73 75 84 90 101 116 138 152 153 154 156 150 150 174 177 161 158 161 168 173 175 176 166 161 164 164 170 154 156 152 146 146 146 148 146 146 153 156 164 173 171 182 188 186 190 193 181 168 156 62 35 349 157 147 143 145 150 154 172 181
250 147 141 210 203 261 270 46 36 320 306 346 52 50 45 30 43 42 42 34 4 32 40 43 40 51 64 70 76 85 98 102 108 116 125 139 151 142 154 157 175 179 173 168 168 172 171 176 177 162 161 168 164 165 159 157 152 150 151 150 155 157 161 157 148 154 170 177 179 181 183 187 191 181 170 175 160 48 24 160 143 138 137 147 152 153 168
315 345 81 147 215 235 224 158 180 200 278 318 31 54 38 36 41 48 58 31 22 23 34 43 45 42 50 60 66 77 84 95 101 107 111 126 136 151 158 167 182 179 169 172 169 174 181 180 176 163 170 165 168 160 156 153 151 152 156 156 155 155 158 152 159 168 167 167 176 181 183 184 180 179 173 179 181 173 71 47 97 134 147 151 150 150 147
323 298 97 131 175 216 192 197 177 146 169 190 88 61 65 43 342 17 63 72 64 24 47 46 56 52 54 67 79 84 87 86 98 118 117 117 147 159 166 178 181 168 170 179 171 176 182 181 175 167 173 171 168 160 156 155 155 156 160 161 160 161 160 157 164 168 178 186 185 187 190 185 190 183 185 184 187 167 155 154 123 61 46 116 168 152 141
294 290 272 181 165 202 209 202 208 166 5 68 99 100 72 104 69 359 77 43 41 51 39 63 70 82 78 67 73 77 94 121 143 119 114 131 142 157 166 167 160 159 169 171 171 171 161 157 161 170 173 169 162 159 158 156 155 157 163 162 163 122 130 155 163 167 170 176 189 188 183 178 185 184 185 193 179 163 165 166 172 182 189 189 193 184 170
286 277 293 339 329 234 159 177 167 151 148 61 55 92 98 323 113 138 65 165 104 54 80 79 98 102 105 105 114 130 153 166 119 113 123 128 126 135 152 139 146 156 169 165 164 132 140 154 164 175 170 171 168 164 161 158 158 159 161 162 151 150 150 150 156 160 167 168 173 175 176 182 188 182 181 183 163 168 167 166 180 190 195 195 186 194 187
240 234 280 187 196 200 137 183 174 158 135 116 119 145 152 129 83 34 128 226 120 193 95 96 85 77 84 109 125 105 103 105 111 113 116 113 111 104 126 133 142 153 158 152 145 145 150 139 150 164 167 172 157 156 148 152 161 156 161 172 170 152 163 170 165 162 168 169 170 178 177 168 174 186 181 193 190 181 178 188 193 197 195 182 174 159 180
36 279 263 231 207 222 224 218 167 150 129 131 196 114 99 146 153 131 72 66 47 74 86 82 77 79 75 82 90 105 113 106 107 115 123 128 122 121 133 138 146 145 145 158 136 161 166 156 129 113 128 144 124 139 164 162 167 179 175 179 184 156 165 165 167 159 165 167 157 130 134 145 160 171 182 189 186 192 198 202 196 188 190 183 170 173 179
246 256 257 271 268 245 222 220 178 164 140 135 135 101 72 42 92 94 83 72 65 73 66 67 65 70 66 65 77 88 99 108 112 121 131 129 134 140 147 151 157 161 166 163 151 162 149 140 157 159 151 157 159 179 178 175 177 177 180 166 116 96 125 140 157 164 164 168 156 169 185 191 194 193 184 179 177 187 197 194 168 188 203 203 194 202 189
235 241 263 258 253 236 205 218 210 157 128 94 104 112 125 121 91 84 80 72 66 55 60 59 62 56 54 57 61 82 98 110 120 122 127 134 142 145 162 163 159 162 168 159 157 165 158 163 188 185 166 172 172 177 173 177 172 175 176 181 167 142 132 135 152 156 163 159 158 169 179 190 196 199 195 189 190 191 195 201 201 200 206 211 209 207 187
159 247 240 231 233 230 215 198 203 151 167 143 117 75 69 69 78 80 74 75 76 65 57 55 49 49 48 49 52 56 74 98 119 136 139 144 150 152 142 157 152 154 154 162 156 169 167 173 168 156 172 167 172 171 173 184 186 182 179 182 165 140 144 162 153 155 156 164 165 183 180 191 197 195 202 201 203 199 204 205 209 204 212 221 215 195 189
202 202 212 225 214 216 195 190 187 200 209 165 102 103 95 90 90 87 88 76 68 62 56 52 47 41 42 43 48 48 65 165 139 129 138 147 145 149 148 152 148 143 143 150 165 163 172 159 150 146 163 163 161 156 159 173 181 192 167 177 137 129 152 163 151 171 161 175 171 177 192 195 205 203 199 202 207 205 202 207 211 216 219 217 208 207 190
218 232 355 107 185 48 300 211 198 220 201 139 144 131 111 102 85 69 62 75 70 66 59 51 44 41 38 38 44 46 43 45 43 86 126 132 136 144 163 162 157 149 155 161 168 167 162 149 150 155 165 170 166 158 162 167 174 182 157 179 138 137 153 162 170 179 173 172 172 175 181 180 191 194 205 205 208 199 195 199 207 209 214 214 218 224 169
213 180 117 103 67 184 222 196 272 229 181 162 141 134 131 118 118 116 99 77 68 63 54 45 44 42 38 31 38 35 46 58 64 29 19 67 141 145 147 174 161 167 163 162 165 148 150 86 46 107 172 177 173 165 170 170 191 170 158 168 126 139 149 159 169 169 171 170 177 177 185 178 180 181 182 189 196 198 199 197 206 211 216 215 213 213 175
195 172 144 133 176 215 180 215 227 215 178 158 142 141 124 117 105 99 91 83 66 52 38 41 39 39 44 45 46 49 41 39 47 66 103 325 288 161 163 157 162 161 155 159 143 179 157 93 64 23 204 170 186 177 146 148 190 165 146 158 151 161 155 162 169 171 173 177 180 175 171 168 183 179 184 194 195 199 203 205 195 199 207 211 216 226 197
129 124 129 137 183 182 205 212 203 174 159 144 138 128 126 122 115 100 86 78 64 54 47 43 39 40 50 54 69 74 70 51 69 128 157 200 205 176 170 173 180 150 186 165 177 179 98 98 98 170 197 171 180 164 145 172 333 198 168 189 171 164 169 176 173 178 180 178 176 176 174 179 180 177 178 189 193 194 194 196 193 195 203 207 210 222 214
92 53 13 1 141 279 238 187 176 155 148 143 134 123 113 104 101 99 88 70 61 42 44 39 20 17 36 275 112 101 97 88 156 190 176 162 191 166 81 50 48 48 72 97 161 103 113 131 174 206 208 165 181 140 134 170 275 263 191 194 188 188 186 195 184 179 181 175 177 184 180 185 184 185 191 202 209 203 196 198 199 196 203 208 214 213 188
111 118 168 174 27 339 260 166 151 139 137 128 131 127 129 130 123 104 88 80 68 33 17 28 313 258 161 178 208 148 92 59 354 229 183 168 202 147 131 100 66 62 31 337 34 94 105 108 221 193 179 149 191 130 146 160 236 257 229 206 224 197 197 204 203 185 179 182 178 185 191 186 190 195 193 199 204 210 208 201 208 205 206 200 211 215 216
124 106 62 132 153 210 227 154 137 124 127 124 122 121 125 114 120 128 84 46 72 54 46 356 327 202 197 218 214 92 65 57 264 32 242 202 198 203 169 129 110 90 39 26 44 105 136 216 241 205 171 171 171 107 129 141 202 220 219 199 216 208 199 205 206 191 177 185 177 183 203 198 190 204 197 196 203 206 210 211 208 197 182 193 211 227 230
116 113 124 80 277 218 158 129 136 131 120 107 104 100 96 87 42 47 77 288 85 86 69 63 30 12 47 79 114 192 185 185 186 165 168 41 32 338 150 108 87 74 5 320 236 168 164 177 187 21 19 127 103 92 117 158 195 203 219 207 206 214 210 196 204 203 194 200 194 193 196 200 188 193 198 198 198 202 204 208 208 203 198 203 217 225 228
123 126 107 184 220 157 128 135 126 122 118 113 111 99 92 93 104 145 190 196 246 186 129 112 129 167 177 135 117 122 136 147 178 149 193 105 49 19 65 118 99 69 3 312 279 192 170 172 72 63 23 37 103 123 155 184 188 206 202 202 200 201 198 189 204 207 189 197 198 208 203 206 208 196 194 196 201 203 205 205 209 210 203 211 217 220 220
122 133 186 182 144 123 125 119 127 140 138 128 128 151 161 124 358 40 49 76 107 155 183 139 147 122 87 124 143 127 130 152 157 155 186 166 139 82 40 57 80 75 20 334 314 126 71 57 60 44 57 81 118 180 212 184 194 192 205 202 192 206 200 185 197 209 204 193 197 204 193 184 177 169 191 202 205 208 205 205 206 209 214 217 217 218 216
168 170 154 131 134 133 139 148 145 140 106 123 128 48 88 108 99 107 93 74 69 99 102 113 138 146 137 110 58 53 40 35 48 26 191 192 171 107 83 105 89 67 27 343 302 65 58 60 54 23 52 37 202 276 261 210 210 221 215 203 199 218 229 192 193 217 203 188 203 206 206 200 201 197 195 199 205 202 196 204 215 220 217 216 207 205 209
139 124 125 136 152 152 130 104 103 120 138 118 95 86 93 109 113 119 122 111 100 85 86 108 124 119 119 105 92 102 130 72 94 73 63 47 56 71 47 39 51 49 328 303 308 70 75 61 48 29 349 310 248 239 235 241 220 223 224 222 221 228 235 223 208 210 206 211 209 215 214 212 210 209 204 200 197 212 212 208 214 217 217 215 214 212 209
131 129 140 135 112 104 119 130 130 116 111 118 127 126 119 130 132 113 98 102 104 97 93 90 103 118 147 140 142 159 136 124 118 99 71 88 96 93 97 83 83 15 341 17 46 48 56 102 78 29 311 322 293 273 242 227 222 237 218 221 211 214 222 224 216 217 205 209 213 213 213 211 211 207 207 195 181 204 213 208 218 217 212 212 214 211 216
138 140 135 121 122 114 97 98 124 137 137 128 126 116 129 137 118 118 127 129 124 115 101 92 94 99 94 51 28 22 11 358 143 106 78 70 69 104 113 92 96 129 126 122 109 99 85 56 41 328 339 313 251 249 257 230 239 229 216 213 213 202 214 210 204 207 211 201 195 202 205 207 210 210 200 209 210 206 213 210 216 221 216 209 211 214 214
141 131 114 108 122 140 138 139 137 142 127 122 133 132 134 130 120 125 111 104 106 107 97 89 86 80 67 49 44 62 52 18 25 83 75 75 117 95 94 122 157 169 265 297 97 97 77 31 10 341 328 297 278 262 168 249 237 236 223 225 213 201 208 205 199 206 206 192 201 217 208 199 205 207 201 205 217 205 200 211 214 218 224 217 214 216 218
133 120 133 151 149 136 141 143 124 118 129 138 136 133 140 160 141 131 140 143 93 91 118 118 107 109 106 105 94 84 73 81 84 81 85 84 91 114 134 116 102 69 311 335 89 88 109 139 267 258 272 268 269 187 119 147 145 234 204 198 207 203 82 44 114 118 196 187 199 209 202 191 204 208 215 213 215 210 205 210 216 104 61 13 231 226 219
140 141 130 124 108 107 84 84 103 118 133 139 134 138 148 139 122 127 140 132 158 148 120 123 129 119 111 111 102 84 92 87 66 34 75 79 72 52 38 87 112 166 183 171 117 124 150 171 156 194 219 233 106 125 133 166 183 158 193 204 209 180 120 159 202 200 202 203 208 211 197 196 205 202 212 218 210 215 218 213 222 221 223 223 223 233 240
91 107 117 111 114 118 120 122 109 106 103 106 112 132 138 153 147 143 128 1 322 171 139 133 129 128 107 93 94 96 75 64 115 106 102 105 108 121 124 258 143 155 233 242 160 122 129 97 110 248 298 288 177 138 109 306 224 164 195 186 218 210 192 210 202 204 199 195 210 207 191 209 206 198 216 228 220 215 218 215 218 222 220 224 222 222 226